Погода в Саланчике

Россия / Чувашская Республика     55˚35′49″N   46˚16′47″E
темп.,
°C
ветер,
м/с
пор.,
м/с
влажн.,
%
обл.,
%
осадки,
мм/ч
давл.,
гПа
погр.,
м
16 января, сб
сб1600:00−11˚св4994100 0.3 1005376
03:00−11˚ссв4995100 3.1 1001424
06:00−11˚св4994100 4.2 998595
09:00−10˚св3895100 5.8 996463
12:00−9˚ссв2494100 0.6 995334
15:00−10˚зсз2396100 1.1 996241
18:00−13˚з2696100 0.4 997155
21:00−13˚зюз3696100 0.6 999232
17 января, вс
вс1700:00−15˚зюз379695 0.2 1000232
03:00−16˚зюз389591 0.3 1002275
06:00−15˚з4895100 0.1 1004347
09:00−17˚з3795100 0.3 1007314
12:00−16˚зсз3593100 0.1 1010419
15:00−19˚зсз2495100 0.1 1012128
18:00−23˚зсз229698 0.0 101420
21:00−24˚сз129799 0.0 101720
18 января, пн
пн1800:00−26˚зюз119890 0.0 101819
03:00−27˚зсз119884 0.0 101819
06:00−28˚юв009969 0.0 101819
09:00−27˚юз019783 0.0 101919
12:00−23˚ююз129495 0.0 1019193
15:00−24˚зсз119697 0.0 101820
18:00−25˚с1196100 0.0 101820
21:00−24˚ссв1196100 0.0 101820
19 января, вт
вт1900:00−22˚ссв1195100 0.0 101747
03:00−21˚ссв2396100 0.0 1016158
06:00−21˚ссв2398100 0.1 1015184
09:00−20˚ссв2398100 0.7 1015228
12:00−18˚ссв2396100 0.4 1014281
15:00−18˚с2496100 0.9 1013292
18:00−18˚с2597100 0.5 1013265
21:00−19˚ссз2597100 0.8 1013239
20 января, ср
ср2000:00−19˚ссз3697100 0.3 1013254
03:00−19˚сз3797100 0.4 1014290
06:00−23˚сз369899 0.0 1014163
09:00−27˚сз259764 0.0 101695
12:00−23˚сз35930 0.0 1017251
15:00−23˚зсз23940 0.0 101880
18:00−26˚зсз22960 0.0 102119
21:00−26˚зюз12994 0.0 102119